This is the latest recevied weather packets stored in our database for station/object EA1BQO-1. If no packets are shown the sender has not sent any weather packets the latest 10 day(s).
| Time | Temp. | Humidity | Pressure | Rain* | Wind** | Luminosity | Snow |
|---|---|---|---|---|---|---|---|
| 1777399132 | 16.11° C | 80% | 1006.6 hPa | 0 mm | - | - | - |
| 1777398532 | 16.11° C | 79% | 1006.7 hPa | 0 mm | - | - | - |
| 1777397932 | 15.56° C | 78% | 1006.9 hPa | 0 mm | - | - | - |
| 1777397332 | 16.11° C | 76% | 1007 hPa | 0 mm | - | - | - |
| 1777396732 | 16.67° C | 74% | 1007.2 hPa | 0 mm | - | - | - |
| 1777396132 | 16.67° C | 75% | 1007.1 hPa | 0 mm | - | - | - |
| 1777395532 | 16.11° C | 78% | 1007.2 hPa | 0 mm | - | - | - |
| 1777394932 | 16.11° C | 80% | 1007.2 hPa | 0 mm | - | - | - |
| 1777394332 | 16.11° C | 80% | 1007 hPa | 0 mm | - | - | - |
| 1777393732 | 16.67° C | 80% | 1006.9 hPa | 0 mm | - | - | - |
| 1777393132 | 16.67° C | 78% | 1006.7 hPa | 0 mm | - | - | - |
| 1777392532 | 16.67° C | 73% | 1006.7 hPa | 0 mm | - | - | - |
| 1777391932 | 16.67° C | 70% | 1007.1 hPa | 0 mm | - | - | - |
| 1777391332 | 16.67° C | 68% | 1007.1 hPa | 0 mm | - | - | - |
| 1777390732 | 17.22° C | 66% | 1007.1 hPa | 0 mm | - | - | - |
| 1777390132 | 17.22° C | 66% | 1007.2 hPa | 0 mm | - | - | - |
| 1777389532 | 17.22° C | 64% | 1007.2 hPa | 0 mm | - | - | - |
| 1777388932 | 17.78° C | 64% | 1007.1 hPa | 0 mm | - | - | - |
| 1777388332 | 17.78° C | 59% | 1007.1 hPa | 0 mm | - | - | - |
| 1777387732 | 17.78° C | 60% | 1007.1 hPa | 0 mm | - | - | - |
| 1777387132 | 17.22° C | 61% | 1006.9 hPa | 0 mm | - | - | - |
| 1777386532 | 16.67° C | 63% | 1007.2 hPa | 0 mm | - | - | - |
| 1777385932 | 17.22° C | 60% | 1007.1 hPa | 0 mm | - | - | - |
| 1777385332 | 17.78° C | 56% | 1007 hPa | 0 mm | - | - | - |
| 1777384732 | 18.33° C | 52% | 1006.8 hPa | 0 mm | - | - | - |
* Rain latest hour (hover to see other rain measurements)
** Current wind speed in m/s (hover to see current wind gust speed)